Weather History for GMMN - December, 2013

Change the Weather History Date:

Tuesday, December 10, 2013

  Actual Average Record
Temperature  
Mean Temperature 54 °F -  
Max Temperature 73 °F 62 °F 82 °F (2010)
Min Temperature 36 °F 44 °F 36 °F (2013)
Degree Days  
Heating Degree Days 10    
Growing Degree Days 4 (Base 50)    
Moisture  
Dew Point 36 °F    
Average Humidity 55    
Maximum Humidity 87    
Minimum Humidity 16    
Precipitation  
Precipitation 0.00 in - - ()
Sea Level Pressure  
Sea Level Pressure 30.22 in    
Wind  
Wind Speed 5 mph ()    
Max Wind Speed 10 mph    
Max Gust Speed -    
Visibility 6.1 miles    
Events      
Averages and records for this station are not official NWS values.
T = Trace of Precipitation, MM = Missing Value Source: Averaged Metar Reports

Daily Weather History Graph

Daily Weather History Graph

Search for Another Location

Airport or City:

Trip Planner

Search our weather history database for the weather conditions in past years. The results will help you decide how hot, cold, wet, or windy it might be!

Date:

Astronomy

Dec. 10, 2013 Rise Set
Actual Time 7:23 AM WET 5:23 PM WET
Civil Twilight 6:55 AM WET 5:50 PM WET
Nautical Twilight 6:25 AM WET 6:21 PM WET
Astronomical Twilight 5:54 AM WET 6:51 PM WET
Moon 1:01 PM WET (12/10) 12:44 AM WET (12/10)
Length of Visible Light 10h 54m
Length of Day
9h 59m
First Quarter, 59% of the Moon is Illuminated
Dec 10
First Quarter
Dec 17
Full
Dec 25
Last Quarter
Jan 1
New
Jan 8
First Quarter

Hourly Weather History & Observations

Time (WET) Temp. Windchill Dew Point Humidity Pressure Visibility Wind Dir Wind Speed Gust Speed Precip Events Conditions
12:00 AM 41 °F - 36 °F 78% 30.27 in 4 mi SE 2.3 mph - -   Clear
12:00 AM 41.0 °F - 37.4 °F 87% 30.24 in 6.2 mi SE 2.3 mph - N/A   Unknown
12:30 AM 39.2 °F 35.9 °F 35.6 °F 87% 30.21 in - SE 4.6 mph - N/A   Clear
1:00 AM 39.2 °F 34.2 °F 33.8 °F 81% 30.21 in - SSE 6.9 mph - N/A   Clear
1:30 AM 39.2 °F 35.9 °F 33.8 °F 81% 30.21 in - South 4.6 mph - N/A   Clear
2:00 AM 39.2 °F 35.9 °F 32.0 °F 75% 30.21 in - South 4.6 mph - N/A   Clear
2:30 AM 39.2 °F 35.9 °F 32.0 °F 75% 30.21 in - SSE 4.6 mph - N/A   Clear
3:00 AM 39 °F - 31 °F 65% 30.26 in 6 mi SE 4.6 mph - -   Clear
3:00 AM 39.2 °F 35.9 °F 32.0 °F 75% 30.21 in - SE 4.6 mph - N/A   Clear
3:30 AM 39.2 °F 35.9 °F 30.2 °F 70% 30.24 in 6.2 mi SSE 4.6 mph - N/A   Unknown
4:00 AM 39.2 °F 35.9 °F 30.2 °F 70% 30.24 in - SSE 4.6 mph - N/A   Clear
4:30 AM 39.2 °F 35.9 °F 30.2 °F 70% 30.24 in - SSE 4.6 mph - N/A   Clear
5:00 AM 39.2 °F 35.0 °F 30.2 °F 70% 30.24 in - South 5.8 mph - N/A   Clear
5:30 AM 39.2 °F 34.2 °F 30.2 °F 70% 30.24 in - SSW 6.9 mph - N/A   Clear
6:00 AM 40 °F - 30 °F 58% 30.27 in 6 mi South 5.8 mph - -  
6:00 AM 41.0 °F 37.1 °F 30.2 °F 65% 30.24 in - South 5.8 mph - N/A   Clear
6:30 AM 39.2 °F 35.9 °F 30.2 °F 70% 30.24 in - SE 4.6 mph - N/A   Clear
7:00 AM 39.2 °F 35.0 °F 30.2 °F 70% 30.24 in - SE 5.8 mph - N/A   Clear
8:00 AM 41.0 °F 39.0 °F 30.2 °F 65% 30.24 in - SSE 3.5 mph - N/A   Clear
8:30 AM 42.8 °F 41.1 °F 33.8 °F 70% 30.24 in - SE 3.5 mph - N/A   Clear
9:00 AM 49 °F - 39 °F 60% 30.28 in 6 mi South 3.5 mph - -   Clear
9:00 AM 48.2 °F - 39.2 °F 71% 30.24 in - South 3.5 mph - N/A   Clear
9:30 AM 55.4 °F - 41.0 °F 58% 30.24 in - SSE 5.8 mph - N/A   Clear
10:00 AM 60.8 °F - 41.0 °F 48% 30.24 in - South 6.9 mph - N/A   Clear
11:30 AM 69.8 °F - 37.4 °F 31% 30.24 in - SSW 5.8 mph - N/A   Clear
12:00 PM 71 °F - 35 °F 16% 30.23 in 6 mi WSW 3.5 mph - -   Clear
12:00 PM 71.6 °F - 35.6 °F 27% 30.24 in - WSW 3.5 mph - N/A   Clear
12:30 PM 71.6 °F - 35.6 °F 27% 30.21 in - West 3.5 mph - N/A   Clear
1:00 PM 71.6 °F - 35.6 °F 27% 30.21 in - NW 5.8 mph - N/A   Clear
1:30 PM 71.6 °F - 35.6 °F 27% 30.21 in - NW 5.8 mph - N/A   Clear
2:00 PM 73.4 °F - 35.6 °F 25% 30.18 in - North 4.6 mph - N/A   Clear
2:30 PM 73.4 °F - 37.4 °F 27% 30.18 in - North 5.8 mph - N/A   Clear
3:00 PM 71 °F - 36 °F 17% 30.17 in 6 mi NE 5.8 mph - -   Clear
3:00 PM 71.6 °F - 35.6 °F 27% 30.18 in - NE 5.8 mph - N/A   Clear
3:30 PM 73.4 °F - 37.4 °F 27% 30.18 in 6.2 mi North 4.6 mph - N/A   Mostly Cloudy
4:00 PM 69.8 °F - 37.4 °F 31% 30.18 in 6.2 mi North 9.2 mph - N/A   Mostly Cloudy
4:30 PM 69.8 °F - 35.6 °F 28% 30.18 in 6.2 mi North 10.4 mph - N/A   Mostly Cloudy
5:00 PM 68.0 °F - 42.8 °F 40% 30.21 in 6.2 mi NNE 6.9 mph - N/A   Scattered Clouds
5:30 PM 64.4 °F - 46.4 °F 52% 30.21 in 6.2 mi North 6.9 mph - N/A   Scattered Clouds
6:00 PM 61 °F - 45 °F 45% 30.21 in 6 mi NNE 8.1 mph - -   Scattered Clouds
6:00 PM 60.8 °F - 44.6 °F 55% 30.21 in 6.2 mi NNE 8.1 mph - N/A   Scattered Clouds
6:30 PM 60.8 °F - 42.8 °F 52% 30.21 in 6.2 mi NE 9.2 mph - N/A   Scattered Clouds
7:00 PM 59.0 °F - 42.8 °F 55% 30.21 in 6.2 mi NE 9.2 mph - N/A   Scattered Clouds
7:30 PM 57.2 °F - 42.8 °F 59% 30.21 in 6.2 mi NE 8.1 mph - N/A   Scattered Clouds
8:00 PM 55.4 °F - 42.8 °F 63% 30.21 in 6.2 mi ENE 6.9 mph - N/A   Scattered Clouds
8:30 PM 51.8 °F - 41.0 °F 67% 30.21 in 6.2 mi East 5.8 mph - N/A   Scattered Clouds
9:00 PM 52 °F - 40 °F 52% 30.24 in 6 mi ESE 4.6 mph - -   Partly Cloudy
9:00 PM 51.8 °F - 39.2 °F 62% 30.21 in 6.2 mi ESE 4.6 mph - N/A   Scattered Clouds
9:30 PM 50.0 °F - 39.2 °F 66% 30.21 in 6.2 mi SE 3.5 mph - N/A   Scattered Clouds
10:00 PM 48.2 °F - 37.4 °F 66% 30.21 in 6.2 mi ESE 3.5 mph - N/A   Scattered Clouds
10:30 PM 50.0 °F - 35.6 °F 58% 30.21 in 6.2 mi ESE 4.6 mph - N/A   Scattered Clouds
11:00 PM 50.0 °F - 35.6 °F 58% 30.21 in 6.2 mi ESE 4.6 mph - N/A   Scattered Clouds
11:30 PM 48.2 °F - 35.6 °F 62% 30.21 in 6.2 mi ESE 4.6 mph - N/A   Scattered Clouds